Flag for Germany Weather past 2 weeks in Braunschweig, Lower Saxony, Germany

Now
64 °F

Sunny.


Feels Like: 64 °F
Forecast: 51 / 63 °F
Wind: 9 mph from Southwest

Location: Braunschweig

Current Time: Apr 25, 2015 at 1:41:10 PM

Latest Report: Apr 25, 2015 at 10:50 AM


Visibility: 10 mi

Pressure: 29.74 "Hg

Humidity: 46%

Dew point: 43 °F

Location of BraunschweigLocation

Historic Weather in Braunschweig — Graph

°F

Braunschweig temperature yesterday

Maximum temperature yesterday: 68 °F (at 3:50 PM)
Minimum temperature yesterday: 37 °F (at 4:20 AM)
Average temperature yesterday: 59 °F

Past Weeks' High & Low Weather Summary

 TemperatureHumidityPressure
High73 °F (Apr 15, 4:20 PM)100% (Apr 14, 6:20 AM)30.39 "Hg (Apr 14, 6:20 AM)
Low34 °F (Apr 14, 6:20 AM)22% (Apr 21, 6:50 PM)29.74 "Hg (Apr 25, 10:50 AM)
Average55 °F59%30.14 "Hg
* Reported Apr 10 10:20 AM — Apr 25 10:50 AM, Braunschweig, Weather by CustomWeather, © 2015

Note: Actual official high and low records may vary slightly from our data, if they occured in-between our weather recording intervals... More about our weather records

Advertising

Braunschweig weather history for previous 24 hours

 ConditionsComfort  
Time TempWeatherWind HumidityBarometerVisibility
10:50 AM
Sat, Apr 25
64 °FSunny.9 mph46%29.74 "Hg10 mi
9:50 AM63 °FSunny.6 mph49%29.77 "Hg10 mi
8:50 AM57 °FPartly sunny.6 mph59%29.77 "HgN/A
7:50 AM54 °FPartly sunny.5 mph63%29.77 "HgN/A
7:20 AM54 °FPartly sunny.6 mph63%29.77 "HgN/A
9:50 PM
Fri, Apr 24
54 °FClear.3 mph54%29.83 "Hg10 mi
9:20 PM57 °FSunny.No wind48%29.83 "Hg10 mi
8:50 PM59 °FSunny.No wind48%29.83 "Hg10 mi
8:20 PM63 °FSunny.3 mph42%29.83 "Hg10 mi
7:50 PM64 °FSunny.5 mph40%29.83 "Hg10 mi
7:20 PM66 °FSunny.6 mph37%29.83 "Hg10 mi
6:50 PM66 °FSunny.8 mph37%29.83 "Hg10 mi
6:20 PM66 °FSunny.9 mph40%29.83 "Hg10 mi
5:50 PM68 °FSunny.8 mph38%29.83 "Hg10 mi
5:20 PM68 °FSunny.9 mph38%29.83 "Hg10 mi
4:50 PM68 °FSunny.12 mph38%29.83 "Hg10 mi
4:20 PM68 °FSunny.10 mph38%29.86 "Hg10 mi
3:50 PM68 °FSunny.12 mph38%29.86 "Hg10 mi
3:20 PM66 °FSunny.14 mph43%29.86 "Hg10 mi
2:50 PM66 °FSunny.8 mph43%29.89 "Hg10 mi
2:20 PM66 °FPassing clouds.12 mph46%29.89 "HgN/A
1:50 PM64 °FPassing clouds.12 mph49%29.89 "HgN/A
1:20 PM64 °FPassing clouds.13 mph49%29.89 "HgN/A
Weather by CustomWeather, © 2015

See weather overviewHow to use our weather pages